When you browse on this site, cookies collect data to enhance your experience and personalize the content and advertising you see.
Visit our Privacy Policy to learn more. By continuing to use the site, you agree to this use of cookies and data.
  • In Hungary
  • List of Countries
  • For 7 days
  • Water Temperature
  • Satellite Maps
  • Weather Map
  • News
  • Weather Widgets
  • user-avatar
    Login

    Hourly Weather Mandaguacu

    Today, 20 November, Tuesday

    Time Temperature Precipitation Wind Pressure Humidity
    00:00 +18°C° 0 mm 4 mps 712 mmHg 75%
    01:00 +18°C° 0 mm 4 mps 711 mmHg 77%
    02:00 +17°C° 0 mm 4 mps 711 mmHg 78%
    03:00 +17°C° 0 mm 3 mps 711 mmHg 79%
    04:00 +17°C° 0 mm 3 mps 711 mmHg 81%
    05:00 +16°C° 0 mm 3 mps 711 mmHg 82%
    06:00 +16°C° 0 mm 3 mps 711 mmHg 83%
    07:00 +18°C° 0 mm 4 mps 712 mmHg 77%
    08:00 +20°C° 0 mm 4 mps 712 mmHg 71%
    09:00 +22°C° 0 mm 4 mps 713 mmHg 65%
    10:00 +25°C° 0 mm 4 mps 713 mmHg 61%
    11:00 +27°C° 0 mm 4 mps 713 mmHg 56%
    12:00 +29°C° 0 mm 4 mps 713 mmHg 51%
    13:00 +30°C° 0 mm 4 mps 712 mmHg 49%
    14:00 +30°C° 0 mm 3 mps 711 mmHg 47%
    15:00 +31°C° 0 mm 3 mps 711 mmHg 45%
    16:00 +30°C° 0 mm 3 mps 710 mmHg 50%
    17:00 +29°C° 0 mm 3 mps 710 mmHg 55%
    18:00 +28°C° 0 mm 3 mps 710 mmHg 60%
    19:00 +27°C° 0 mm 4 mps 710 mmHg 64%
    20:00 +25°C° 0 mm 4 mps 711 mmHg 68%
    21:00 +22°C° 0 mm 5 mps 711 mmHg 72%
    22:00 +21°C° 0 mm 5 mps 712 mmHg 72%
    23:00 +21°C° 0 mm 5 mps 712 mmHg 72%

    Tomorrow, 21 November, Wednesday

    Time Temperature Precipitation Wind Pressure Humidity
    00:00 +20°C° 0 mm 5 mps 712 mmHg 72%
    01:00 +19°C° 0 mm 5 mps 712 mmHg 73%
    02:00 +17°C° 0 mm 5 mps 712 mmHg 74%
    03:00 +17°C° 0 mm 4 mps 711 mmHg 76%
    04:00 +17°C° 0 mm 4 mps 711 mmHg 76%
    05:00 +17°C° 0 mm 4 mps 712 mmHg 77%
    06:00 +17°C° 0 mm 4 mps 712 mmHg 78%
    07:00 +19°C° 0 mm 5 mps 712 mmHg 74%
    08:00 +21°C° 0 mm 5 mps 713 mmHg 70%
    09:00 +23°C° 0 mm 5 mps 713 mmHg 65%
    10:00 +26°C° 0 mm 5 mps 713 mmHg 62%
    11:00 +28°C° 0 mm 5 mps 713 mmHg 58%
    12:00 +29°C° 0 mm 4 mps 713 mmHg 54%
    13:00 +30°C° 0 mm 4 mps 712 mmHg 54%
    14:00 +30°C° 0 mm 4 mps 711 mmHg 54%
    15:00 +30°C° 0 mm 4 mps 711 mmHg 55%
    16:00 +30°C° 0 mm 4 mps 710 mmHg 58%
    17:00 +29°C° 0 mm 3 mps 710 mmHg 62%
    18:00 +28°C° 0 mm 3 mps 709 mmHg 65%
    19:00 +27°C° 0 mm 3 mps 710 mmHg 68%
    20:00 +26°C° 0 mm 4 mps 710 mmHg 71%
    21:00 +23°C° 0 mm 4 mps 711 mmHg 73%
    22:00 +23°C° 0 mm 5 mps 711 mmHg 74%
    23:00 +22°C° 0 mm 5 mps 711 mmHg 74%

    Day after tomorrow, 22 November, Thursday

    Time Temperature Precipitation Wind Pressure Humidity
    00:00 +22°C° 0 mm 5 mps 711 mmHg 75%
    01:00 +21°C° 0 mm 5 mps 711 mmHg 77%
    02:00 +21°C° 0 mm 5 mps 710 mmHg 78%
    03:00 +20°C° 0 mm 5 mps 710 mmHg 80%
    04:00 +20°C° 0 mm 4 mps 710 mmHg 82%
    05:00 +20°C° 0 mm 4 mps 710 mmHg 83%
    06:00 +20°C° 0 mm 4 mps 710 mmHg 85%
    07:00 +21°C° 0 mm 4 mps 711 mmHg 81%
    08:00 +23°C° 0 mm 5 mps 711 mmHg 77%
    09:00 +25°C° 0 mm 5 mps 712 mmHg 73%
    10:00 +26°C° 0 mm 5 mps 711 mmHg 71%
    11:00 +27°C° 0 mm 5 mps 711 mmHg 69%
    12:00 +27°C° 0 mm 4 mps 711 mmHg 67%
    13:00 +28°C° 0.3 mm 4 mps 711 mmHg 65%
    14:00 +29°C° 0.3 mm 4 mps 710 mmHg 63%
    15:00 +30°C° 0.3 mm 4 mps 709 mmHg 61%
    16:00 +29°C° 0.1 mm 4 mps 709 mmHg 64%
    17:00 +29°C° 0.1 mm 3 mps 709 mmHg 66%
    18:00 +28°C° 0.1 mm 3 mps 708 mmHg 68%
    19:00 +27°C° 0 mm 3 mps 709 mmHg 72%
    20:00 +26°C° 0 mm 3 mps 709 mmHg 76%
    21:00 +24°C° 0 mm 3 mps 709 mmHg 80%
    22:00 +24°C° 0 mm 3 mps 709 mmHg 80%
    23:00 +24°C° 0 mm 3 mps 710 mmHg 80%

    23 November, Friday

    Time Temperature Precipitation Wind Pressure Humidity
    00:00 +24°C° 0 mm 3 mps 710 mmHg 80%
    01:00 +22°C° 0 mm 3 mps 709 mmHg 80%
    02:00 +22°C° 0 mm 3 mps 709 mmHg 80%
    03:00 +22°C° 0 mm 3 mps 709 mmHg 80%
    04:00 +21°C° 0 mm 3 mps 709 mmHg 82%
    05:00 +21°C° 0 mm 3 mps 709 mmHg 84%
    06:00 +21°C° 0 mm 3 mps 709 mmHg 86%
    07:00 +23°C° 0 mm 4 mps 710 mmHg 80%
    08:00 +26°C° 0 mm 4 mps 710 mmHg 73%
    09:00 +28°C° 0 mm 4 mps 711 mmHg 66%
    10:00 +29°C° 0.3 mm 4 mps 711 mmHg 63%
    11:00 +30°C° 0.3 mm 3 mps 710 mmHg 59%
    12:00 +31°C° 0.3 mm 3 mps 710 mmHg 56%
    13:00 +31°C° 0.4 mm 3 mps 709 mmHg 57%
    14:00 +31°C° 0.4 mm 3 mps 709 mmHg 58%
    15:00 +31°C° 0.4 mm 3 mps 708 mmHg 58%
    16:00 +30°C° 0.4 mm 3 mps 708 mmHg 62%
    17:00 +30°C° 0.4 mm 2 mps 707 mmHg 66%
    18:00 +29°C° 0.4 mm 2 mps 707 mmHg 69%
    19:00 +28°C° 0.3 mm 2 mps 708 mmHg 73%
    20:00 +26°C° 0.3 mm 2 mps 708 mmHg 76%
    21:00 +25°C° 0.3 mm 2 mps 708 mmHg 80%
    22:00 +25°C° 2 mm 2 mps 708 mmHg 84%
    23:00 +24°C° 2 mm 2 mps 708 mmHg 88%

    24 November, Saturday

    Time Temperature Precipitation Wind Pressure Humidity
    00:00 +23°C° 2 mm 2 mps 708 mmHg 91%
    01:00 +22°C° 2.3 mm 3 mps 708 mmHg 90%
    02:00 +22°C° 2.3 mm 3 mps 708 mmHg 89%
    03:00 +22°C° 2.3 mm 4 mps 708 mmHg 88%
    04:00 +22°C° 2.5 mm 3 mps 708 mmHg 89%
    05:00 +22°C° 2.5 mm 3 mps 708 mmHg 90%
    06:00 +22°C° 2.5 mm 3 mps 708 mmHg 92%
    07:00 +22°C° 3.2 mm 3 mps 708 mmHg 92%
    08:00 +22°C° 3.2 mm 3 mps 708 mmHg 92%
    09:00 +22°C° 3.2 mm 3 mps 709 mmHg 92%
    10:00 +22°C° 3.8 mm 3 mps 708 mmHg 92%
    11:00 +22°C° 3.8 mm 4 mps 708 mmHg 92%
    12:00 +22°C° 3.8 mm 4 mps 708 mmHg 93%
    13:00 +22°C° 2.2 mm 4 mps 707 mmHg 93%
    14:00 +22°C° 2.2 mm 4 mps 707 mmHg 93%
    15:00 +22°C° 2.2 mm 3 mps 706 mmHg 93%
    16:00 +22°C° 4.8 mm 3 mps 706 mmHg 94%
    17:00 +22°C° 4.8 mm 3 mps 706 mmHg 94%
    18:00 +21°C° 4.8 mm 3 mps 706 mmHg 95%
    19:00 +21°C° 3.7 mm 4 mps 706 mmHg 95%
    20:00 +21°C° 3.7 mm 4 mps 707 mmHg 96%
    21:00 +21°C° 3.7 mm 4 mps 707 mmHg 96%
    22:00 +21°C° 5.5 mm 4 mps 707 mmHg 96%
    23:00 +21°C° 5.5 mm 3 mps 707 mmHg 96%

    25 November, Sunday

    Time Temperature Precipitation Wind Pressure Humidity
    00:00 +21°C° 5.5 mm 3 mps 707 mmHg 97%
    01:00 +21°C° 3.5 mm 3 mps 706 mmHg 97%
    02:00 +21°C° 3.5 mm 3 mps 706 mmHg 97%
    03:00 +21°C° 3.5 mm 2 mps 705 mmHg 97%
    04:00 +21°C° 1 mm 2 mps 705 mmHg 97%
    05:00 +21°C° 1 mm 2 mps 706 mmHg 97%
    06:00 +22°C° 1 mm 1 mps 706 mmHg 98%
    07:00 +22°C° 0.4 mm 1 mps 706 mmHg 96%
    08:00 +23°C° 0.4 mm 2 mps 706 mmHg 95%
    09:00 +23°C° 0.4 mm 2 mps 707 mmHg 94%
    10:00 +24°C° 0.5 mm 1 mps 706 mmHg 89%
    11:00 +25°C° 0.5 mm 1 mps 706 mmHg 84%
    12:00 +27°C° 0.5 mm 1 mps 706 mmHg 80%
    13:00 +27°C° 0.8 mm 1 mps 706 mmHg 77%
    14:00 +28°C° 0.8 mm 1 mps 705 mmHg 75%
    15:00 +29°C° 0.8 mm 1 mps 705 mmHg 73%
    16:00 +28°C° 1.3 mm 2 mps 705 mmHg 77%
    17:00 +27°C° 1.3 mm 2 mps 705 mmHg 81%
    18:00 +26°C° 1.3 mm 3 mps 705 mmHg 85%
    19:00 +25°C° 0 mm 3 mps 705 mmHg 86%
    20:00 +22°C° 0 mm 3 mps 705 mmHg 88%
    21:00 +21°C° 0 mm 3 mps 705 mmHg 90%
    22:00 +21°C° 0 mm 3 mps 705 mmHg 90%
    23:00 +21°C° 0 mm 3 mps 706 mmHg 91%
    Show more